FW7706 Weather Reports


Display with metric or nautical units.
time (UTC)temp
F
wind
direction
speed
MPH
gust
MPH
rain 1hr
in
rain 24hr
in
rain mn
in
humidity
%
barometer
mb
20260506134343 0 341 2.0 3.0 0.00 0.00 0.00 1014.0
20260506133840 0 330 4.0 5.0 0.00 0.00 0.00 1014.0
20260506133337 0 336 2.0 2.0 0.00 0.00 0.00 1014.3
20260506132833 0 352 5.0 7.0 0.00 0.00 0.00 1014.0
20260506132331 0 58 3.0 5.0 0.00 0.00 0.00 1014.7
20260506131829 0 343 6.0 9.0 0.00 0.00 0.00 1014.3
20260506131325 0 18 5.0 6.0 0.00 0.00 0.00 1014.0
20260506130822 0 346 4.0 7.0 0.00 0.00 0.00 1014.0
20260506130318 0 312 8.0 9.0 0.00 0.00 0.00 1014.0
20260506125816 0 323 2.0 3.0 0.00 0.00 0.00 1014.0
20260506125314 0 338 2.0 5.0 0.00 0.00 0.00 1014.0
20260506124813 0 343 8.0 9.0 0.00 0.00 0.00 1014.0
20260506124309 0 323 5.0 6.0 0.00 0.00 0.00 1014.0
20260506123807 0 20 3.0 5.0 0.00 0.00 0.00 1014.0
20260506123305 0 2 4.0 6.0 0.00 0.00 0.00 1013.6
20260506122802 0 335 3.0 3.0 0.00 0.00 0.00 1013.6
20260506122259 0 17 5.0 6.0 0.00 0.00 0.00 1013.6
20260506121757 0 315 3.0 5.0 0.00 0.00 0.00 1013.6
20260506121253 0 333 3.0 3.0 0.00 0.00 0.00 1013.2
20260506120751 0 318 8.0 10.0 0.00 0.00 0.00 1013.2
20260506120249 0 336 3.0 5.0 0.00 0.00 0.00 1013.2
20260506115746 0 319 8.0 11.0 0.00 0.00 0.00 1012.9
20260506115244 0 78 3.0 5.0 0.00 0.00 0.00 1012.9
20260506114742 0 17 2.0 3.0 0.00 0.00 0.00 1012.9
20260506114239 0 34 3.0 3.0 0.00 0.00 0.00 1012.9
20260506113738 0 340 4.0 8.0 0.00 0.00 0.00 1012.9
20260506113235 0 330 3.0 7.0 0.00 0.00 0.00 1012.5
20260506112731 0 355 3.0 3.0 0.00 0.00 0.00 1012.2
20260506112229 0 285 4.0 7.0 0.00 0.00 0.00 1012.5
20260506111726 0 49 4.0 6.0 0.00 0.00 0.00 1012.2
20260506111224 0 256 3.0 3.0 0.00 0.00 0.00 1012.2
20260506110721 0 7 3.0 3.0 0.00 0.00 0.00 1012.2
20260506110218 0 323 2.0 3.0 0.00 0.00 0.00 1011.9
20260506105714 0 8 4.0 5.0 0.00 0.00 0.00 1011.9
20260506105211 0 353 3.0 5.0 0.00 0.00 0.00 1011.9
20260506104710 0 348 3.0 3.0 0.00 0.00 0.00 1011.9
20260506104207 0 279 3.0 3.0 0.00 0.00 0.00 1011.5
20260506103704 0 328 4.0 6.0 0.00 0.00 0.00 1011.9
20260506103200 0 330 2.0 5.0 0.00 0.00 0.00 1011.5
20260506102659 0 282 3.0 3.0 0.00 0.00 0.00 1011.9
20260506102156 0 5 3.0 5.0 0.00 0.00 0.00 1011.5
20260506101653 0 288 3.0 3.0 0.00 0.00 0.00 1011.5
20260506101150 0 298 3.0 3.0 0.00 0.00 0.00 1011.5
20260506100648 0 348 3.0 5.0 0.00 0.00 0.00 1011.2
20260506100146 0 262 2.0 3.0 0.00 0.00 0.00 1011.5
20260506095644 0 307 5.0 7.0 0.00 0.00 0.00 1011.5
20260506095140 0 225 2.0 2.0 0.00 0.00 0.00 1011.5
20260506094638 0 311 3.0 5.0 0.00 0.00 0.00 1011.5
20260506094136 0 269 3.0 5.0 0.00 0.00 0.00 1011.2
20260506093634 0 245 2.0 2.0 0.00 0.00 0.00 1011.2
20260506093131 0 249 2.0 2.0 0.00 0.00 0.00 1010.8
20260506092629 0 349 5.0 6.0 0.00 0.00 0.00 1010.8
20260506092125 0 15 2.0 2.0 0.00 0.00 0.00 1010.8
20260506091623 0 38 3.0 3.0 0.00 0.00 0.00 1010.8
20260506091121 0 328 1.0 1.0 0.00 0.00 0.00 1011.2
20260506090619 0 310 2.0 3.0 0.00 0.00 0.00 1011.2
20260506090115 0 352 3.0 3.0 0.00 0.00 0.00 1011.2
20260506085612 0 243 3.0 5.0 0.00 0.00 0.00 1010.8
20260506085108 0 277 3.0 3.0 0.00 0.00 0.00 1010.8
20260506084605 0 272 1.0 2.0 0.00 0.00 0.00 1010.8
20260506084101 0 319 1.0 1.0 0.00 0.00 0.00 1010.8
20260506083558 0 335 3.0 5.0 0.00 0.00 0.00 1010.8
20260506083056 0 349 2.0 2.0 0.00 0.00 0.00 1010.8
20260506082552 0 340 2.0 3.0 0.00 0.00 0.00 1010.5
20260506082048 0 220 1.0 1.0 0.00 0.00 0.00 1010.5
20260506081546 0 331 2.0 2.0 0.00 0.00 0.00 1010.8
20260506081043 0 240 1.0 2.0 0.00 0.00 0.00 1010.8
20260506080541 0 161 1.0 1.0 0.00 0.00 0.00 1010.5
20260506073525 0 10 2.0 3.0 0.00 0.00 0.00 1010.5
20260506073021 0 304 2.0 2.0 0.00 0.00 0.00 1010.5
20260506072519 0 330 5.0 6.0 0.00 0.00 0.00 1010.5
20260506072016 0 357 1.0 2.0 0.00 0.00 0.00 1010.5
20260506071514 0 280 2.0 2.0 0.00 0.00 0.00 1010.5
20260506071011 0 267 2.0 2.0 0.00 0.00 0.00 1010.5
20260506070508 0 320 5.0 10.0 0.00 0.00 0.00 1010.8
20260506062446 0 296 4.0 7.0 0.00 0.00 0.00 1010.5
20260506061942 0 42 2.0 3.0 0.00 0.00 0.00 1010.5
20260506061438 0 274 3.0 3.0 0.00 0.00 0.00 1010.5
20260506060936 0 35 3.0 3.0 0.00 0.00 0.00 1010.5
20260506060434 0 21 5.0 6.0 0.00 0.00 0.00 1010.5
20260506051406 0 309 4.0 5.0 0.00 0.00 0.00 1010.2
20260506050903 0 272 3.0 3.0 0.00 0.00 0.00 1010.5
20260506050401 0 310 3.0 5.0 0.00 0.00 0.00 1010.2
20260506044851 0 315 2.0 3.0 0.00 0.00 0.00 1010.2
20260506044349 0 287 2.0 3.0 0.00 0.00 0.00 1010.2
20260506043845 0 348 4.0 5.0 0.00 0.00 0.00 1009.8
20260506043342 0 328 7.0 13.0 0.00 0.00 0.00 1009.8
20260506042841 0 332 4.0 6.0 0.00 0.00 0.00 1010.2
20260506042340 0 259 2.0 3.0 0.00 0.00 0.00 1009.8
20260506041838 0 359 3.0 6.0 0.00 0.00 0.00 1009.8
20260506041335 0 309 7.0 10.0 0.00 0.00 0.00 1009.8
20260506040832 0 343 3.0 3.0 0.00 0.00 0.00 1009.8
20260506040329 0 359 5.0 6.0 0.00 0.00 0.00 1009.5
20260506035825 0 334 2.0 2.0 0.00 0.00 0.00 1009.5
20260506035323 0 345 4.0 8.0 0.00 0.00 0.00 1009.8
20260506034820 0 329 6.0 9.0 0.00 0.00 0.00 1009.5
20260506034317 0 3 5.0 7.0 0.00 0.00 0.00 1009.2
20260506033814 0 355 5.0 7.0 0.00 0.00 0.00 1009.5
20260506033311 0 340 3.0 5.0 0.00 0.00 0.00 1009.2
20260506032808 0 23 5.0 7.0 0.00 0.00 0.00 1009.2
20260506032306 0 268 2.0 2.0 0.00 0.00 0.00 1009.2
20260506031801 0 321 3.0 3.0 0.00 0.00 0.00 1008.8
20260506031259 0 276 4.0 5.0 0.00 0.00 0.00 1008.5
20260506030757 0 16 5.0 6.0 0.00 0.00 0.00 1008.8
20260506030254 0 314 5.0 7.0 0.00 0.00 0.00 1008.8
20260506025751 0 327 3.0 3.0 0.00 0.00 0.00 1008.1
20260506025247 0 359 7.0 9.0 0.00 0.00 0.00 1008.1
20260506024744 0 33 5.0 6.0 0.00 0.00 0.00 1008.1
20260506024241 0 1 5.0 6.0 0.00 0.00 0.00 1008.5
20260506023737 0 9 5.0 5.0 0.00 0.00 0.00 1007.5
20260506023234 0 266 3.0 3.0 0.00 0.00 0.00 1007.5
20260506022731 0 0 3.0 5.0 0.00 0.00 0.00 1007.8
20260506022229 0 20 3.0 3.0 0.00 0.00 0.00 1007.5
20260506021727 0 333 5.0 6.0 0.00 0.00 0.00 1007.8
20260506021224 0 352 4.0 7.0 0.00 0.00 0.00 1007.1
20260506020720 0 33 4.0 6.0 0.00 0.00 0.00 1007.5
20260506020218 0 4 7.0 9.0 0.00 0.00 0.00 1007.5
20260506015715 0 0 3.0 5.0 0.00 0.00 0.00 1007.5
20260506015213 0 1 2.0 5.0 0.00 0.00 0.00 1007.1
20260506014710 0 288 0.0 0.0 0.00 0.00 0.00 1006.8
20260506014206 0 289 1.0 1.0 0.00 0.00 0.00 1006.8
20260506013704 0 288 0.0 0.0 0.00 0.00 0.00 1006.8
20260506013201 0 289 1.0 1.0 0.00 0.00 0.00 1006.4
20260506012657 0 289 0.0 0.0 0.00 0.00 0.00 1006.4
20260506012154 0 289 0.0 0.0 0.00 0.00 0.00 1006.4
20260506011651 0 209 1.0 1.0 0.00 0.00 0.00 1006.4
20260506011147 0 240 0.0 1.0 0.00 0.00 0.00 1006.4
20260506010646 0 5 1.0 1.0 0.00 0.00 0.00 1006.8
20260506010143 0 56 4.0 6.0 0.00 0.00 0.00 1006.8
20260506005639 0 257 3.0 3.0 0.00 0.00 0.00 1006.0
20260506005136 0 282 3.0 3.0 0.00 0.00 0.00 1006.0
20260506004633 0 193 0.0 1.0 0.00 0.00 0.00 1006.0
20260506004130 0 211 0.0 1.0 0.00 0.00 0.00 1005.7
20260506003626 0 193 0.0 0.0 0.00 0.00 0.00 1005.7
20260506003122 0 177 1.0 1.0 0.00 0.00 0.00 1005.0
20260506002619 0 193 2.0 2.0 0.00 0.00 0.00 1005.3
20260506002114 0 194 1.0 1.0 0.00 0.00 0.00 1005.7
20260506001611 0 202 0.0 1.0 0.00 0.00 0.00 1005.3
20260506001108 0 189 1.0 1.0 0.00 0.00 0.00 1005.3
20260506000606 0 186 0.0 1.0 0.00 0.00 0.00 1005.7
20260505235601 0 185 2.0 3.0 0.00 0.00 0.00 1005.7
20260505235057 0 218 3.0 5.0 0.00 0.00 0.00 1005.7
20260505234554 0 193 3.0 3.0 0.00 0.00 0.00 1005.7
20260505234051 0 181 2.0 2.0 0.00 0.00 0.00 1005.3
20260505233548 0 187 2.0 2.0 0.00 0.00 0.00 1005.0
20260505233046 0 187 2.0 2.0 0.00 0.00 0.00 1005.3
20260505232543 0 192 2.0 2.0 0.00 0.00 0.00 1005.0
20260505232041 0 189 1.0 1.0 0.00 0.00 0.00 1005.3
20260505231537 0 203 1.0 2.0 0.00 0.00 0.00 1005.3
20260505231036 0 206 1.0 1.0 0.00 0.00 0.00 1005.0
20260505230533 0 173 1.0 2.0 0.00 0.00 0.00 1005.3
20260505230029 0 185 2.0 3.0 0.00 0.00 0.00 1005.3
20260505225526 0 197 2.0 2.0 0.00 0.00 0.00 1005.3
20260505225022 0 185 2.0 2.0 0.00 0.00 0.00 1005.0
20260505224520 0 229 2.0 3.0 0.00 0.00 0.00 1005.0
20260505224017 0 202 3.0 3.0 0.00 0.00 0.00 1005.0
20260505223514 0 197 2.0 2.0 0.00 0.00 0.00 1005.0
20260505223010 0 190 3.0 5.0 0.00 0.00 0.00 1005.0
20260505222506 0 192 2.0 2.0 0.00 0.00 0.00 1005.0
20260505222002 0 203 2.0 3.0 0.00 0.00 0.00 1005.0
20260505221500 0 199 2.0 2.0 0.00 0.00 0.00 1005.0
20260505220957 0 214 1.0 1.0 0.00 0.00 0.00 1005.3
20260505220453 0 162 2.0 3.0 0.00 0.00 0.00 1005.7
20260505215951 0 203 2.0 2.0 0.00 0.00 0.00 1005.0
20260505215449 0 219 2.0 2.0 0.00 0.00 0.00 1005.3
20260505214946 0 177 1.0 2.0 0.00 0.00 0.00 1005.0
20260505214444 0 217 5.0 7.0 0.00 0.00 0.00 1005.0
20260505213941 0 251 2.0 3.0 0.00 0.00 0.00 1005.7
20260505213439 0 171 2.0 3.0 0.00 0.00 0.00 1005.3
20260505212935 0 204 3.0 5.0 0.00 0.00 0.00 1005.3
20260505212432 0 223 5.0 7.0 0.00 0.00 0.00 1005.3
20260505211928 0 192 2.0 3.0 0.00 0.00 0.00 1005.3
20260505211426 0 195 3.0 3.0 0.00 0.00 0.00 1005.3
20260505210922 0 191 2.0 2.0 0.00 0.00 0.00 1005.7
20260505210420 0 158 2.0 2.0 0.00 0.00 0.00 1005.7
20260505205916 0 209 1.0 1.0 0.00 0.00 0.00 1005.3
20260505205415 0 202 1.0 2.0 0.00 0.00 0.00 1005.7
20260505204911 0 204 2.0 3.0 0.00 0.00 0.00 1005.7
20260505204409 0 188 3.0 3.0 0.00 0.00 0.00 1005.7
20260505203906 0 178 3.0 5.0 0.00 0.00 0.00 1005.7
20260505203402 0 210 3.0 5.0 0.00 0.00 0.00 1005.7
20260505202859 0 224 3.0 3.0 0.00 0.00 0.00 1005.7
20260505202355 0 219 3.0 3.0 0.00 0.00 0.00 1005.7
20260505201852 0 161 5.0 6.0 0.00 0.00 0.00 1005.7
20260505201349 0 230 4.0 6.0 0.00 0.00 0.00 1006.0
20260505200847 0 235 5.0 6.0 0.00 0.00 0.00 1006.0
20260505200344 0 219 3.0 5.0 0.00 0.00 0.00 1005.7
20260505195839 0 254 3.0 3.0 0.00 0.00 0.00 1006.0
20260505195337 0 228 2.0 3.0 0.00 0.00 0.00 1005.7
20260505194834 0 215 3.0 3.0 0.00 0.00 0.00 1005.7
20260505194331 0 179 4.0 5.0 0.00 0.00 0.00 1005.7
20260505193826 0 204 1.0 1.0 0.00 0.00 0.00 1006.0
20260505193324 0 179 3.0 5.0 0.00 0.00 0.00 1005.7
20260505192822 0 200 3.0 5.0 0.00 0.00 0.00 1005.7
20260505192320 0 210 2.0 3.0 0.00 0.00 0.00 1005.7
20260505191818 0 202 2.0 2.0 0.00 0.00 0.00 1005.7
20260505191316 0 224 6.0 7.0 0.00 0.00 0.00 1006.0
20260505190812 0 193 2.0 2.0 0.00 0.00 0.00 1005.7
20260505190307 0 231 3.0 5.0 0.00 0.00 0.00 1005.7
20260505185804 0 224 3.0 3.0 0.00 0.00 0.00 1006.0
20260505185300 0 197 3.0 3.0 0.00 0.00 0.00 1006.0
20260505184756 0 235 2.0 2.0 0.00 0.00 0.00 1006.0
20260505184253 0 228 2.0 2.0 0.00 0.00 0.00 1006.0
20260505183751 0 193 3.0 3.0 0.00 0.00 0.00 1006.0
20260505183248 0 163 5.0 7.0 0.00 0.00 0.00 1006.0
20260505182744 0 218 6.0 10.0 0.00 0.00 0.00 1006.0
20260505182241 0 200 4.0 6.0 0.00 0.00 0.00 1006.0
20260505181737 0 217 2.0 3.0 0.00 0.00 0.00 1006.0
20260505181235 0 193 4.0 5.0 0.00 0.00 0.00 1006.4
20260505180731 0 194 5.0 6.0 0.00 0.00 0.00 1006.4
20260505180228 0 188 2.0 3.0 0.00 0.00 0.00 1006.0
20260505175724 0 172 4.0 6.0 0.00 0.00 0.00 1005.7
20260505175221 0 204 1.0 2.0 0.00 0.00 0.00 1005.7
20260505174718 0 201 4.0 5.0 0.00 0.00 0.00 1006.0
20260505174215 0 221 3.0 3.0 0.00 0.00 0.00 1006.0
20260505173710 0 188 3.0 3.0 0.00 0.00 0.00 1005.7
20260505173208 0 193 3.0 6.0 0.00 0.00 0.00 1005.3
20260505172705 0 190 4.0 7.0 0.00 0.00 0.00 1005.0
20260505172201 0 178 5.0 6.0 0.00 0.00 0.00 1005.3
20260505171701 0 182 3.0 5.0 0.00 0.00 0.00 1005.3
20260505171159 0 190 5.0 7.0 0.00 0.00 0.00 1006.4
20260505170655 0 167 3.0 5.0 0.00 0.00 0.00 1007.5
20260505170152 0 202 2.0 3.0 0.00 0.00 0.00 1007.1
20260505165652 0 213 5.0 7.0 0.00 0.00 0.00 1006.8
20260505165148 0 222 2.0 3.0 0.00 0.00 0.00 1006.8
20260505164644 0 237 2.0 3.0 0.00 0.00 0.00 1006.0
20260505164142 0 169 4.0 6.0 0.00 0.00 0.00 1006.0
20260505163640 0 237 5.0 6.0 0.00 0.00 0.00 1006.0
20260505163138 0 195 1.0 2.0 0.00 0.00 0.00 1006.0
20260505162635 0 192 3.0 5.0 0.00 0.00 0.00 1006.0
20260505162132 0 231 2.0 2.0 0.00 0.00 0.00 1006.0
20260505161629 0 194 4.0 6.0 0.00 0.00 0.00 1006.0
20260505161126 0 213 3.0 5.0 0.00 0.00 0.00 1006.0
20260505160624 0 220 3.0 3.0 0.00 0.00 0.00 1006.0
20260505160121 0 204 2.0 3.0 0.00 0.00 0.00 1005.7
20260505153101 0 213 5.0 7.0 0.00 0.00 0.00 1006.4
20260505152557 0 204 3.0 5.0 0.00 0.00 0.00 1006.0
20260505152053 0 211 4.0 6.0 0.00 0.00 0.00 1005.7
20260505151548 0 219 4.0 6.0 0.00 0.00 0.00 1006.0
20260505151046 0 199 3.0 5.0 0.00 0.00 0.00 1006.4
20260505150542 0 173 4.0 6.0 0.00 0.00 0.00 1005.7
20260505140507 0 184 4.0 7.0 0.00 0.00 0.00 1006.0